TimeCST,TemperatureF,Dew PointF,Humidity,Sea Level PressureIn,VisibilityMPH,Wind Direction,Wind SpeedMPH,Gust SpeedMPH,PrecipitationIn,Events,Conditions,WindDirDegrees,DateUTC
12:15 AM,59.0,48.2,67,30.09,4.0,South,10.4,-,N/A,,Haze,190,2012-12-02 06:15:00
12:35 AM,59.0,48.2,67,30.08,5.0,South,10.4,-,N/A,,Haze,190,2012-12-02 06:35:00
12:55 AM,59.0,48.2,67,30.08,5.0,South,9.2,-,N/A,,Haze,180,2012-12-02 06:55:00
1:15 AM,59.0,48.2,67,30.08,9.0,South,10.4,-,N/A,,Unknown,180,2012-12-02 07:15:00
1:35 AM,59.0,50.0,72,30.08,9.0,South,10.4,-,N/A,,Unknown,180,2012-12-02 07:35:00
1:55 AM,59.0,50.0,72,30.08,7.0,South,9.2,-,N/A,,Unknown,170,2012-12-02 07:55:00
2:15 AM,57.2,50.0,77,30.08,5.0,South,9.2,-,N/A,,Haze,180,2012-12-02 08:15:00
2:35 AM,59.0,50.0,72,30.08,7.0,South,9.2,-,N/A,,Unknown,180,2012-12-02 08:35:00
2:55 AM,59.0,51.8,77,30.07,4.0,South,11.5,16.1,N/A,,Haze,180,2012-12-02 08:55:00
3:15 AM,59.0,53.6,82,30.07,5.0,South,12.7,-,N/A,,Haze,190,2012-12-02 09:15:00
3:35 AM,60.8,53.6,77,30.07,3.0,South,15.0,21.9,N/A,,Haze,190,2012-12-02 09:35:00
3:55 AM,60.8,53.6,77,30.07,3.0,South,16.1,-,N/A,,Haze,190,2012-12-02 09:55:00
4:15 AM,62.6,53.6,72,30.07,3.0,South,19.6,25.3,N/A,,Haze,190,2012-12-02 10:15:00
4:55 AM,62.6,55.4,77,30.06,2.0,South,20.7,27.6,N/A,,Haze,190,2012-12-02 10:55:00
5:15 AM,62.6,55.4,77,30.06,1.8,SSW,21.9,28.8,N/A,,Haze,200,2012-12-02 11:15:00
5:35 AM,62.6,55.4,77,30.06,2.5,SSW,24.2,29.9,N/A,,Haze,200,2012-12-02 11:35:00
5:55 AM,62.6,55.4,77,30.06,1.5,SSW,23.0,29.9,N/A,,Haze,200,2012-12-02 11:55:00
6:15 AM,62.6,57.2,82,30.07,1.5,SSW,20.7,29.9,N/A,,Haze,200,2012-12-02 12:15:00
6:35 AM,62.6,57.2,82,30.08,1.2,SSW,20.7,28.8,N/A,,Haze,200,2012-12-02 12:35:00
6:55 AM,62.6,57.2,82,30.08,0.8,SSW,24.2,29.9,N/A,,Haze,200,2012-12-02 12:55:00
7:15 AM,62.6,57.2,82,30.09,0.8,SSW,20.7,27.6,N/A,,Haze,210,2012-12-02 13:15:00
7:35 AM,62.6,57.2,82,30.10,0.8,SSW,20.7,29.9,N/A,,Mist,210,2012-12-02 13:35:00
7:55 AM,62.6,57.2,82,30.11,10.0,SSW,20.7,25.3,N/A,,Unknown,210,2012-12-02 13:55:00
8:15 AM,62.6,57.2,82,30.11,10.0,SSW,17.3,28.8,N/A,,Unknown,210,2012-12-02 14:15:00
8:35 AM,62.6,59.0,88,30.12,9.0,SSW,19.6,25.3,N/A,,Unknown,210,2012-12-02 14:35:00
8:55 AM,62.6,59.0,88,30.13,10.0,SSW,18.4,27.6,N/A,,Unknown,210,2012-12-02 14:55:00
9:15 AM,62.6,59.0,88,30.13,8.0,SSW,19.6,24.2,N/A,,Unknown,210,2012-12-02 15:15:00
9:35 AM,62.6,59.0,88,30.13,8.0,SSW,17.3,21.9,N/A,,Unknown,210,2012-12-02 15:35:00
9:55 AM,62.6,59.0,88,30.14,8.0,SSW,17.3,26.5,N/A,,Unknown,210,2012-12-02 15:55:00
10:15 AM,64.4,59.0,83,30.14,8.0,SSW,17.3,-,N/A,,Unknown,210,2012-12-02 16:15:00
10:35 AM,64.4,59.0,83,30.13,8.0,SSW,17.3,24.2,N/A,,Unknown,210,2012-12-02 16:35:00
10:55 AM,64.4,59.0,83,30.13,9.0,SSW,16.1,21.9,N/A,,Unknown,210,2012-12-02 16:55:00
11:15 AM,64.4,60.8,88,30.12,9.0,SSW,15.0,21.9,N/A,,Unknown,210,2012-12-02 17:15:00
11:55 AM,66.2,60.8,83,30.10,8.0,SSW,16.1,-,N/A,,Unknown,210,2012-12-02 17:55:00
12:15 PM,66.2,60.8,83,30.10,8.0,SSW,15.0,21.9,N/A,,Unknown,200,2012-12-02 18:15:00
12:35 PM,66.2,60.8,83,30.09,9.0,SW,20.7,25.3,N/A,,Unknown,220,2012-12-02 18:35:00
12:55 PM,66.2,60.8,83,30.09,9.0,SSW,19.6,25.3,N/A,,Unknown,200,2012-12-02 18:55:00
1:15 PM,68.0,60.8,78,30.08,8.0,SSW,18.4,-,N/A,,Unknown,200,2012-12-02 19:15:00
1:35 PM,68.0,60.8,78,30.07,8.0,SSW,18.4,26.5,N/A,,Unknown,200,2012-12-02 19:35:00
1:55 PM,68.0,60.8,78,30.07,9.0,SSW,21.9,25.3,N/A,,Unknown,200,2012-12-02 19:55:00
2:15 PM,68.0,62.6,83,30.06,9.0,SSW,12.7,23.0,N/A,,Unknown,210,2012-12-02 20:15:00
2:35 PM,68.0,60.8,78,30.06,10.0,SSW,11.5,20.7,N/A,,Unknown,210,2012-12-02 20:35:00
2:55 PM,68.0,60.8,78,30.06,10.0,SSW,15.0,-,N/A,,Unknown,200,2012-12-02 20:55:00
3:15 PM,69.8,60.8,73,30.06,10.0,SSW,17.3,-,N/A,,Unknown,200,2012-12-02 21:15:00
3:35 PM,69.8,60.8,73,30.06,9.0,South,16.1,20.7,N/A,,Unknown,190,2012-12-02 21:35:00
3:55 PM,68.0,60.8,78,30.06,10.0,South,12.7,-,N/A,,Unknown,190,2012-12-02 21:55:00
4:15 PM,68.0,60.8,78,30.06,7.0,South,16.1,23.0,N/A,,Unknown,180,2012-12-02 22:15:00
4:35 PM,68.0,60.8,78,30.05,10.0,South,13.8,20.7,N/A,,Unknown,190,2012-12-02 22:35:00
4:55 PM,66.2,60.8,83,30.06,10.0,South,12.7,-,N/A,,Unknown,180,2012-12-02 22:55:00
5:15 PM,66.2,60.8,83,30.06,10.0,South,13.8,-,N/A,,Unknown,180,2012-12-02 23:15:00
5:35 PM,66.2,60.8,83,30.07,10.0,South,13.8,18.4,N/A,,Unknown,180,2012-12-02 23:35:00
5:55 PM,66.2,60.8,83,30.07,10.0,South,11.5,-,N/A,,Unknown,180,2012-12-02 23:55:00
6:15 PM,66.2,60.8,83,30.07,10.0,South,15.0,-,N/A,,Unknown,180,2012-12-03 00:15:00
6:35 PM,66.2,60.8,83,30.08,10.0,South,15.0,-,N/A,,Unknown,180,2012-12-03 00:35:00
7:15 PM,64.4,60.8,88,30.08,10.0,South,15.0,-,N/A,,Unknown,190,2012-12-03 01:15:00
7:35 PM,64.4,60.8,88,30.08,10.0,South,15.0,-,N/A,,Unknown,190,2012-12-03 01:35:00
7:55 PM,64.4,60.8,88,30.08,10.0,South,13.8,-,N/A,,Unknown,190,2012-12-03 01:55:00
8:15 PM,64.4,60.8,88,30.08,9.0,South,15.0,-,N/A,,Unknown,190,2012-12-03 02:15:00
8:35 PM,64.4,60.8,88,30.08,10.0,South,15.0,-,N/A,,Unknown,190,2012-12-03 02:35:00
8:55 PM,64.4,60.8,88,30.08,10.0,South,12.7,-,N/A,,Unknown,190,2012-12-03 02:55:00
9:15 PM,64.4,60.8,88,30.09,10.0,South,13.8,-,N/A,,Unknown,190,2012-12-03 03:15:00
9:35 PM,64.4,60.8,88,30.09,10.0,SSW,16.1,20.7,N/A,,Unknown,200,2012-12-03 03:35:00
9:55 PM,64.4,60.8,88,30.09,10.0,SSW,17.3,-,N/A,,Unknown,200,2012-12-03 03:55:00
10:15 PM,64.4,60.8,88,30.09,10.0,SSW,17.3,-,N/A,,Unknown,200,2012-12-03 04:15:00
10:55 PM,62.6,60.8,94,30.09,9.0,SSW,15.0,-,N/A,,Unknown,210,2012-12-03 04:55:00
11:15 PM,62.6,60.8,94,30.09,9.0,SSW,12.7,20.7,N/A,,Unknown,210,2012-12-03 05:15:00
11:35 PM,62.6,60.8,94,30.09,9.0,SSW,11.5,17.3,N/A,,Unknown,210,2012-12-03 05:35:00
11:55 PM,62.6,60.8,94,30.09,10.0,SSW,9.2,-,N/A,,Unknown,210,2012-12-03 05:55:00